Location: Observatoire
(46.1952°N, 5.3391°E)
Time: 22:48:50
(UTC+01:00)

Vanguard 1 - All Passes

Search period start: 18 February 2026 00:00
Search period end: 28 February 2026 00:00
Orbit: 652 x 3819 km, 34.3° (Epoch: 17 February)

Date Brightness Start Highest point End Pass type
(mag) Time Alt. Az. Time Alt. Az. Time Alt. Az.
18 Feb - 14:05:01 10° S 14:11:48 21° SE 14:21:33 10° E daylight
18 Feb - 16:20:51 10° SW 16:31:39 47° SSE 16:49:56 10° E daylight
18 Feb - 18:40:11 10° WSW 18:54:37 55° S 19:16:26 10° ESE visible
18 Feb - 21:01:52 10° W 21:18:51 42° SSW 21:39:26 10° SE visible
18 Feb - 23:28:36 10° W 23:41:45 19° SW 23:55:09 10° S visible
19 Feb - 14:22:52 10° SSW 14:30:22 26° SE 14:41:58 10° E daylight
19 Feb - 16:39:44 10° WSW 16:50:49 50° SSE 17:09:41 10° E daylight
19 Feb - 18:59:26 10° W 19:14:03 53° S 19:35:43 10° ESE visible
19 Feb - 21:21:37 10° W 21:38:04 36° SSW 21:57:38 10° SSE visible
19 Feb - 23:51:25 10° WSW 00:00:30 14° SW 00:09:43 10° SSW visible
20 Feb - 14:41:07 10° SSW 14:49:06 32° SE 15:02:05 10° E daylight
20 Feb - 16:58:44 10° WSW 17:10:04 52° S 17:29:21 10° ESE daylight
20 Feb - 19:18:46 10° W 19:33:27 50° SSW 19:54:48 10° SE visible
20 Feb - 21:41:36 10° W 21:57:12 31° SW 22:15:24 10° SSE visible
21 Feb - 12:47:43 10° SE 12:49:26 11° SE 12:51:18 10° ESE daylight
21 Feb - 14:59:37 10° SW 15:07:56 37° SSE 15:22:01 10° E daylight
21 Feb - 17:17:48 10° WSW 17:29:21 53° S 17:48:57 10° ESE daylight
21 Feb - 19:38:10 10° W 19:52:50 45° SSW 20:13:40 10° SE visible
21 Feb - 22:01:59 10° W 22:16:16 25° SW 22:32:34 10° S visible
22 Feb - 13:03:27 10° SSE 13:07:54 15° SE 13:13:43 10° ESE daylight
22 Feb - 15:18:19 10° SW 15:26:54 42° SSE 15:41:50 10° E daylight
22 Feb - 17:36:57 10° WSW 17:48:43 52° S 18:08:25 10° ESE daylight
22 Feb - 19:57:41 10° W 20:12:11 40° SSW 20:32:14 10° SE visible
22 Feb - 22:23:04 10° W 22:35:15 19° SW 22:48:51 10° S visible
23 Feb - 13:20:58 10° S 13:26:28 21° SE 13:34:23 10° E daylight
23 Feb - 15:37:10 10° SW 15:45:59 45° SSE 16:01:33 10° E daylight
23 Feb - 17:56:09 10° WSW 18:08:05 50° S 18:27:44 10° ESE daylight
23 Feb - 20:17:21 10° W 20:31:28 35° SSW 20:50:27 10° SSE visible
23 Feb - 22:45:42 10° WSW 22:54:13 14° SW 23:03:23 10° SSW visible
24 Feb - 13:39:04 10° SSW 13:45:09 26° SE 13:54:33 10° E daylight
24 Feb - 15:56:07 10° WSW 16:05:09 48° S 16:21:13 10° ESE daylight
24 Feb - 18:15:25 10° W 18:27:27 46° SSW 18:46:52 10° SE visible
24 Feb - 20:37:17 10° W 20:50:43 29° SSW 21:08:12 10° SSE visible
25 Feb - 13:57:30 10° SSW 14:03:57 31° SSE 14:14:28 10° E daylight
25 Feb - 16:15:08 10° WSW 16:24:23 48° S 16:40:47 10° ESE daylight
25 Feb - 18:34:46 10° W 18:46:49 42° SSW 19:05:45 10° SE visible
25 Feb - 20:57:37 10° W 21:09:55 24° SW 21:25:19 10° S visible
26 Feb - 12:03:27 10° SE 12:04:26 10° SE 12:05:27 10° SE daylight
26 Feb - 14:16:08 10° SW 14:22:53 36° SSE 14:34:15 10° E daylight
26 Feb - 16:34:14 10° WSW 16:43:40 48° S 17:00:15 10° ESE daylight
26 Feb - 18:54:15 10° W 19:06:11 37° SSW 19:24:20 10° SE visible
26 Feb - 21:18:42 10° WSW 21:29:05 18° SW 21:41:29 10° S visible
27 Feb - 12:19:30 10° S 12:23:02 15° SE 12:27:30 10° ESE daylight
27 Feb - 14:34:56 10° SW 14:41:54 39° SSE 14:53:56 10° ESE daylight
27 Feb - 16:53:24 10° WSW 17:02:58 45° S 17:19:34 10° ESE daylight
27 Feb - 19:13:53 10° W 19:25:31 32° SSW 19:42:32 10° SSE visible
27 Feb - 21:41:35 10° WSW 21:48:13 13° SW 21:55:35 10° SSW visible
